Location: Casteau
(50.5142°N, 4.0161°E)
Time: 02:17:12
(UTC+00:00)

S-56A Canister/Altair - Pass Details

Date: 07 August 2021
Orbit: 632 x 2500 km, 38.9° (Epoch: 16 September)

Event Time Altitude Azimuth Distance (km) Brightness Sun altitude
Rises 20:06:20 0° 278° (W) 6,150 13.3 -7.4°
Reaches altitude 10° 20:13:29 10° 257° (WSW) 5,156 12.3 -8.3°
Maximum altitude 20:19:24 14° 233° (SW) 4,754 11.7 -9.0°
Drops below altitude 10° 20:25:05 10° 209° (SSW) 4,862 11.5 -9.7°
Sets 20:31:27 0° 186° (S) 5,537 11.6 -10.4°
